GORIZONT 13 [-]

Last updated on Nov. 19, 2019, 4:25 a.m. UTC

1 17083U 86090A   19321.48658635 -.00000113  00000-0  00000-0 0  9999
2 17083  15.3261 346.9633 0018797 315.0064 228.4883  0.96725983 95394
UTC
Height (km)
Latitude
Longitude
Inclination
Orbital Period
UTC large
Height (km)
Speed (km/s)
/
Latitude / Longitude
Inclination (degrees)
Orbital Period (minutes)
Azimuth
Elevation
Range (km)
Doppler Factor
iOS Compass Heading
iOS Angle

Next 30 passes for location: Hong Kong

Rise time Rise Azimuth (degrees) Set time Set Azimuth (degrees) Duration Max altitude (degrees)

No matching passes for this satellites